This is the latest recevied weather packets stored in our database for station/object DL7MAP-13. If no packets are shown the sender has not sent any weather packets the latest 10 day(s).
| Time | Temp. | Humidity | Pressure | Rain* | Wind** | Luminosity | Snow |
|---|---|---|---|---|---|---|---|
| 1777655586 | 24.44° C | 28% | 1020.3 hPa | - | - | - | - |
| 1777654687 | 25.56° C | 27% | 1019.7 hPa | - | - | - | - |
| 1777653787 | 25.56° C | 28% | 1020.6 hPa | - | - | - | - |
| 1777652887 | 25.56° C | 27% | 1020.9 hPa | - | - | - | - |
| 1777651987 | 24.44° C | 28% | 1021.5 hPa | - | - | - | - |
| 1777651086 | 24.44° C | 27% | 1021.3 hPa | - | - | - | - |
| 1777650187 | 25° C | 27% | 1020.4 hPa | - | - | - | - |
| 1777649287 | 25.56° C | 26% | 1020.8 hPa | - | - | - | - |
| 1777648387 | 26.11° C | 25% | 1020.7 hPa | - | - | - | - |
| 1777647487 | 25.56° C | 25% | 1021.6 hPa | - | - | - | - |
| 1777646587 | 25.56° C | 26% | 1020.5 hPa | - | - | - | - |
| 1777645687 | 26.67° C | 25% | 1021.2 hPa | - | - | - | - |
| 1777644787 | 26.11° C | 25% | 1021.6 hPa | - | - | - | - |
| 1777643886 | 25.56° C | 25% | 1022.1 hPa | - | - | - | - |
| 1777642987 | 25° C | 28% | 1022.5 hPa | - | - | - | - |
| 1777642087 | 23.89° C | 30% | 1022.1 hPa | - | - | - | - |
| 1777641187 | 25° C | 29% | 1022.8 hPa | - | - | - | - |
| 1777640287 | 24.44° C | 30% | 1022.5 hPa | - | - | - | - |
| 1777639387 | 23.89° C | 30% | 1024.2 hPa | - | - | - | - |
| 1777638487 | 25° C | 30% | 1021.9 hPa | - | - | - | - |
| 1777637587 | 24.44° C | 31% | 1023.7 hPa | - | - | - | - |
| 1777636687 | 23.89° C | 32% | 1023.3 hPa | - | - | - | - |
| 1777635786 | 23.33° C | 32% | 1024.1 hPa | - | - | - | - |
| 1777634887 | 22.78° C | 34% | 1024.1 hPa | - | - | - | - |
| 1777633987 | 22.22° C | 34% | 1024.9 hPa | - | - | - | - |
* Rain since midnight (hover to see other rain measurements)
** Current wind speed in m/s (hover to see current wind gust speed)